Preview of NWS' New Version of Forecast
This preview is not operational and should not be used for support decisions.
Latest weather observations around

Missoula, Missoula International Airport (KMSO)

Using English Units (Switch to International System of Units)
Date/ Time (MST) Wind (mph) Vis. (mi) Weather Sky Cond. Temp (°F) Rel. Humidity Wind Chill (°F) Heat Index (°F) Pressure Precip. (in)
Air Dwpt 6 hour Altimeter (inHg) Sea level (inHg) 1 hr 3 hr 6 hr
Max Min
Jan 18 12:53 Calm 6 Fog/Mist SCT055 31 29     92%     30.15 30.25      
Jan 18 11:53 Calm 7 Mostly Cloudy BKN049 BKN095 30 29     96%     30.14 30.24      
Jan 18 11:29 Calm 2 Fog/Mist FEW001 BKN049 OVC110 30 28     92%     30.14        
Jan 18 11:21 Calm 1.75 Fog/Mist SCT004 BKN050 OVC110 30 27     88%     30.14        
Jan 18 11:11 Calm 1.5 Fog/Mist FEW001 BKN005 OVC110 28 27     96%     30.14        
Jan 18 11:09 Calm 1 Fog/Mist FEW002 BKN005 OVC110 29 27     92%     30.14        
Jan 18 11:00 NE 3 0.25 Fog FEW002 BKN006 OVC048 29 27     92% 25   30.13        
Jan 18 10:53 Calm 0.25 Fog VV004 29 27     92%     30.13 30.23      
Jan 18 10:42 Calm 0.25 Fog FEW002 BKN008 OVC047 28 26     92%     30.12        
Jan 18 10:34 WNW 5 0.25 Fog BKN003 OVC047 28 26     92% 23   30.12        
Jan 18 10:15 Calm 0.25 Fog VV002 28 27     96%     30.11        
Jan 18 10:03 Calm 0.25 Fog BKN005 OVC049 27 25     92%     30.1        
Jan 18 09:53 Calm 0.25 Fog SCT009 BKN050 OVC090 26 25     96%     30.1 30.2      
Jan 18 09:43 Calm 0.25 Fog SCT050 BKN090 25 25     100%     30.1        
Jan 18 08:53 Calm 0.5 Fog FEW015 OVC046 27 26     96%     30.08 30.18      
Jan 18 08:35 Calm 0.25 Fog OVC048 27 25     92%     30.06        
Jan 18 08:21 Calm 0.75 Fog/Mist FEW003 OVC048 27 25     92%     30.06        
Jan 18 08:13 Calm 1.25 Fog/Mist FEW004 SCT021 OVC046 27 26     96%     30.05        
Jan 18 08:09 Calm 1 Fog/Mist FEW004 BKN015 OVC046 27 26     96%     30.05        
Jan 18 08:01 Calm 0.5 Fog FEW002 BKN013 OVC046 27 26     96%     30.05        
Jan 18 07:57 Calm 0.25 Fog FEW002 BKN015 OVC048 27 26     96%     30.05        
Jan 18 07:53 N 3 0.25 Fog BKN011 OVC048 27 25     92% 23   30.05 30.15      
Jan 18 07:47 NW 3 0.25 Fog BKN011 OVC048 27 25     93% 23   30.05        
Jan 18 07:35 Calm 0.25 Fog BKN015 OVC048 27 26     96%     30.04        
Jan 18 07:33 Calm 0.25 Fog BKN010 OVC048 27 26     96%     30.04        
Jan 18 06:53 Calm 0.25 Fog VV003 28 26     92%     30.02 30.11      
Jan 18 06:37 S 5 0.25 Fog VV003 27 26     96% 21   30.01        
Jan 18 05:53 Calm 2.5 Fog/Mist OVC002 27 25     92%     29.99 30.09      
Jan 18 04:53 W 3 2.5 Fog/Mist BKN004 OVC038 27 25     92% 23   29.96 30.06     0
Jan 18 04:48 W 3 2.5 Fog/Mist BKN004 OVC038 28 25     86% 25   29.96        
Jan 18 03:53 NNW 3 3 Fog/Mist OVC004 28 26     92% 24   29.94 30.03      
Jan 18 02:53 SE 5 3 Fog/Mist OVC006 27 25     92% 21   29.91 30.01 0    
Jan 18 01:53 Calm 3 Fog/Mist OVC005 28 25     88%     29.88 29.98   0  
Jan 18 01:32 Calm 3 Fog/Mist OVC005 28 26     92%     29.87        
Jan 18 01:14 Calm 2.5 Fog/Mist OVC005 28 26     92%     29.86        
Jan 18 00:53 Calm 3 Fog/Mist OVC006 27 25     92%     29.86 29.97 0    
Jan 18 00:13 WSW 3 3 Fog/Mist BKN006 BKN013 OVC047 28 26     92% 24   29.85   0    
Jan 17 23:53 Calm 3 Fog/Mist FEW006 BKN013 OVC047 29 26     89%     29.84 29.94 0    
Jan 17 23:31 E 3 3 Fog/Mist BKN014 OVC050 28 26     92% 24   29.83   0    
Jan 17 23:20 ENE 3 2.5 Light Snow and Fog/Mist FEW006 BKN014 OVC050 28 25     88% 24   29.83   0    
Jan 17 23:10 ENE 3 1.75 Light Snow and Fog/Mist FEW006 BKN014 OVC028 28 25     88% 24   29.82   0    
Jan 17 22:53 Calm 1.5 Fog/Mist FEW007 BKN028 OVC050 27 25     92%     29.82 29.92 0   0
Jan 17 22:48 Calm 1.75 Fog/Mist FEW007 BKN030 OVC055 28 25     86%     29.81   0    
Jan 17 22:40 Calm 2 Fog/Mist FEW007 BKN032 OVC050 28 25     88%     29.81   0    
Jan 17 22:30 Calm 1.5 Fog/Mist SCT015 BKN038 OVC055 28 25     88%     29.81   0    
Jan 17 22:17 Calm 1.75 Fog/Mist BKN015 OVC038 28 26     92%     29.8   0    
Jan 17 22:03 Calm 2 Light Snow and Fog/Mist FEW015 OVC034 29 26     89%     29.8   0    
Jan 17 21:53 Calm 1.5 Light Snow and Fog/Mist FEW015 OVC034 29 26     89%     29.8 29.91 0    
Jan 17 21:33 Calm 1.75 Light Snow and Fog/Mist SCT015 OVC034 29 26     89%     29.79   0    
Jan 17 21:20 Calm 1.5 Light Snow and Fog/Mist SCT015 OVC028 29 26     89%     29.79   0    
Jan 17 21:10 Calm 1.25 Light Snow and Fog/Mist SCT015 OVC024 29 26     89%     29.79   0    
Jan 17 20:53 SE 3 1 Light Snow and Fog/Mist OVC017 29 26     89% 25   29.78 29.89 0    
Jan 17 20:30 Calm 1.25 Light Snow and Fog/Mist OVC015 29 26     89%     29.77   0    
Jan 17 19:53 Calm 1 Light Snow and Fog/Mist OVC015 29 26     89%     29.76 29.87 0 0  
Jan 17 19:46 Calm 1 Light Snow and Fog/Mist OVC015 29 26     89%     29.76   0    
Jan 17 19:17 Calm 1.75 Light Snow and Fog/Mist OVC015 29 26     89%     29.75   0    
Jan 17 18:53 Calm 2.5 Light Snow and Fog/Mist OVC016 29 26     89%     29.74 29.85 0    
Jan 17 18:45 Calm 2.5 Light Snow and Fog/Mist FEW006 OVC016 28 26     92%     29.74   0    
Jan 17 18:33 ESE 5 1.5 Light Snow and Fog/Mist SCT005 OVC018 28 26     92% 23   29.73   0    
Jan 17 18:19 ESE 7 1.75 Light Snow and Fog/Mist SCT005 BKN012 OVC018 28 26     92% 21   29.73   0    
Jan 17 18:12 SE 7 1.5 Light Snow and Fog/Mist FEW010 OVC018 28 26     92% 21   29.72   0    
Jan 17 17:53 Calm 1 Light Snow and Fog/Mist FEW010 OVC018 28 26     92%     29.72 29.83 0    
Jan 17 17:45 Calm 1 Light Snow and Fog/Mist BKN019 OVC039 28 26     92%     29.71   0    
Jan 17 17:36 W 5 1.75 Light Snow and Fog/Mist BKN020 OVC043 28 25     88% 23   29.71   0    
Jan 17 17:26 W 5 2.5 Light Snow and Fog/Mist FEW020 BKN043 OVC050 28 25     88% 23   29.7   0    
Jan 17 16:53 W 5 6 Fog/Mist FEW022 BKN055 OVC075 29 25     85% 24   29.69 29.8 0   0
Jan 17 16:42 NW 3 4 Light Snow and Fog/Mist SCT022 BKN035 OVC090 30 26     85% 27   29.69   0    
Jan 17 16:17 WNW 5 2.5 Light Snow FEW023 BKN036 OVC045 30 25     81% 25   29.68   0    
Jan 17 15:53 WNW 3 4 Fog/Mist BKN050 OVC065 29 25     85% 25   29.68 29.79 0    
Jan 17 15:15 NW 3 3 Light Snow and Fog/Mist BKN033 BKN048 BKN100 28 25     88% 24   29.67   0    
Jan 17 15:08 NNW 5 2 Clear   28 24     85% 23   29.67   0    
Jan 17 15:03 NNW 6 1.25 Clear   28 24     85% 22   29.67   0    
Jan 17 14:53 NW 5 0.5 Snow and Fog BKN018 OVC036 27 24     89% 21   29.67 29.78 0    
Jan 17 14:49 NNW 8 0.5 Snow and Fog BKN018 BKN025 OVC036 27 23     86% 18   29.67   0    
Jan 17 14:41 NNW 6 1 Light Snow and Fog/Mist BKN024 OVC036 27 23     85% 20   29.67   0    
Jan 17 14:36 N 5 1.5 Light Snow and Fog/Mist BKN026 OVC038 26 22     84% 20   29.67   0    
Jan 17 14:30 NW 7 1.25 Light Snow and Fog/Mist FEW024 OVC034 26 22     84% 18   29.67   0    
Jan 17 14:19 NW 5 1.75 Light Snow and Fog/Mist SCT024 BKN032 OVC043 25 21     85% 19   29.67   0    
Jan 17 14:05 W 3 1.75 Light Snow and Fog/Mist BKN028 OVC040 25 21     85% 21       0    
Jan 17 13:54 NW 5 1.25 Light Snow and Fog/Mist BKN024 BKN034 OVC044 25 21     85% 19       0    
Jan 17 13:49 WNW 5 0.75 Light Snow and Fog/Mist BKN026 BKN033 OVC055 25 21     85% 19   29.68 29.8 0 0  
Jan 17 13:48 WNW 3 0.75 Light Snow and Fog/Mist BKN026 BKN033 OVC060 25 21     86% 21   29.68   0    
Jan 17 13:42 Calm 1.25 Light Snow and Fog/Mist BKN030 OVC055 25 21     85%         0    
Jan 17 13:33 Calm 2.5 Light Snow FEW035 BKN045 OVC060 25 20     81%     29.69   0    
Jan 17 12:53 Calm 4 Fog/Mist OVC060 23 19     85%     29.71 29.83      
Jan 17 11:53 W 5 4 Fog/Mist OVC065 22 18     84% 16     29.85      
Jan 17 10:53 Calm 3 Fog/Mist SCT024 SCT039 OVC070 22 18     84%       29.86 0   0
Jan 17 10:51 Calm 2.5 Light Snow and Fog/Mist SCT024 SCT039 OVC070 21 18     86%         0    
Jan 17 10:44 Calm 1.75 Light Snow and Fog/Mist FEW009 BKN024 OVC070 21 18     88%         0    
Jan 17 10:36 Calm 1.25 Light Snow and Fog/Mist VV013 21 18     88%     29.74   0    
Jan 17 10:25 Calm 0.5 Light Snow and Fog VV013 21 18     88%     29.74   0    
Jan 17 10:09 3 0.25 Snow and Fog VV013 20 18     92% 15   29.75   0    
Jan 17 10:02 SE 3 0.25 Snow and Fog VV011 20 17     88% 15   29.75   0    
Jan 17 09:55 ESE 5 0.25 Snow and Fog VV013 20 17     88% 13   29.76   0    
Jan 17 09:53 ESE 5 0.5 Snow and Fog VV011 20 17     88% 13   29.76 29.89 0    
Jan 17 09:29 SE 5 0.5 Snow and Fog VV011 20 17     88% 13   29.77   0    
Jan 17 09:21 SE 5 0.5 Snow and Fog VV009 20 17     88% 13   29.77   0    
Jan 17 09:10 SE 5 0.5 Snow and Fog VV011 20 17     88% 13   29.77   0    
Jan 17 08:59 ESE 5 0.5 Snow and Fog VV014 20 16     84% 13   29.77   0    
Jan 17 08:53 SE 5 0.5 Snow and Fog VV017 20 16     84% 13   29.77 29.9 0    
Jan 17 08:20 Calm 2.5 Light Snow and Fog/Mist OVC036 20 16     84%     29.77   0    
Jan 17 08:15 Calm 3 Light Snow and Fog/Mist OVC040 20 16     84%     29.77   0    
Jan 17 08:01 Calm 2.5 Light Snow and Fog/Mist BKN048 OVC060 20 16     84%     29.77   0    
Jan 17 07:53 Calm 3 Light Snow and Fog/Mist OVC060 20 16     84%     29.78 29.91 0 0  
Jan 17 06:53 NW 3 5 Fog/Mist FEW037 OVC070 19 15     84% 14   29.79 29.92 0    
Jan 17 05:53 Calm 6 Fog/Mist OVC060 19 15     84%     29.82 29.96      
Jan 17 04:53 SE 5 6 Fog/Mist OVC070 18 14     84% 11   29.86 29.99      
Jan 17 03:53 Calm 5 Fog/Mist OVC075 18 15     88%     29.89 30.02      
Jan 17 02:53 SE 3 5 Fog/Mist OVC065 18 15     88% 13   29.91 30.04      
Jan 17 01:53 Calm 4 Fog/Mist OVC075 17 14     88%     29.92 30.05      
Jan 17 00:53 Calm 6 Fog/Mist OVC080 17 14     88%     29.94 30.08      
Jan 16 23:53 Calm 5 Fog/Mist OVC090 15 12     87%     29.95 30.1      
Jan 16 22:53 Calm 5 Fog/Mist FEW065 17 13     83%     29.97 30.11      
Jan 16 21:53 ESE 5 5 Fog/Mist OVC065 19 16     88% 12   29.97 30.11      
Jan 16 20:53 E 6 5 Fog/Mist OVC065 19 15     84% 11   29.98 30.12      
Jan 16 19:53 ESE 7 6 Fog/Mist BKN070 18 14     84% 9   30 30.14      
Jan 16 18:53 ESE 7 7 Clear CLR 18 13     80% 9   29.98 30.13      
Jan 16 17:53 SSE 6 7 Clear CLR 19 13     77% 11   29.99 30.13      
Jan 16 16:53 Calm 6 Haze CLR 20 14     77%     30 30.14      
Jan 16 15:53 WSW 3 7 Clear CLR 20 14     77% 15   30.01 30.15      
Jan 16 14:53 W 3 6 Haze CLR 21 15     77% 16   30 30.14      
Jan 16 14:04 Calm 6 Fog/Mist FEW010 20 16     84%     30.01        
Jan 16 13:53 Calm 6 Haze BKN010 20 15     81%     30.01 30.15      
Jan 16 12:53 SW 3 5 Fog/Mist OVC009 19 15     84% 14   30.04 30.18      
Jan 16 11:53 SSW 3 5 Fog/Mist OVC010 18 14     84% 13   30.05 30.2      
Jan 16 11:37 SW 5 5 Fog/Mist OVC010 18 14     84% 11   30.06        
Jan 16 10:53 S 3 5 Fog/Mist OVC009 17 14     88% 12   30.06 30.21      
Jan 16 09:53 W 3 6 Fog/Mist OVC009 17 13     83% 12   30.05 30.2      
Jan 16 08:53 W 3 6 Haze OVC008 17 12     80% 12   30.02 30.17      
Jan 16 07:53 W 3 7 Cloudy OVC009 16 11     80% 11   30.03 30.18      
Jan 16 06:53 Calm 7 Cloudy OVC009 17 11     76%     30.02 30.17      
Jan 16 06:12 Calm 8 Cloudy OVC009 17 12     80%     30.02        
Jan 16 05:53 Calm 8 Cloudy OVC010 17 11     76%     30.02 30.17      
Jan 16 04:53 Calm 8 Cloudy OVC011 17 11     76%     30.02 30.17      
Jan 16 04:43 Calm 8 Cloudy OVC012 17 11     76%     30.02        
Jan 16 04:35 Calm 8 Cloudy OVC014 17 11     76%     30.02        
Jan 16 03:53 Calm 8 Cloudy OVC017 17 10     73%     30.02 30.17      
Jan 16 02:53 Calm 9 Cloudy OVC018 17 10     73%     30.02 30.18      
Jan 16 01:53 Calm 9 Cloudy OVC018 17 10     73%     30.02 30.17      
Jan 16 00:53 Calm 8 Cloudy OVC018 16 10     77%     30.02 30.17      
Jan 16 00:29 Calm 8 Cloudy BKN018 OVC070 16 10     77%     30.03        
Jan 16 00:12 Calm 8 Cloudy FEW018 OVC070 16 10     77%     30.03        
Jan 15 23:53 Calm 8 Cloudy OVC075 16 10     77%     30.03 30.2      
Jan 15 22:53 Calm 8 Cloudy OVC070 16 10     77%     30.03 30.2      
Jan 15 21:53 WNW 3 8 Cloudy FEW024 BKN050 OVC065 16 9     73% 11   30.04 30.2      
Jan 15 21:48 WNW 3 8 Cloudy SCT024 BKN050 OVC065 16 10     79% 10   30.04        
Jan 15 20:53 Calm 9 Cloudy OVC024 16 9     73%     30.05 30.21      
Jan 15 19:53 WNW 3 9 Cloudy OVC024 15 9     76% 10   30.06 30.22      
Jan 15 19:19 WNW 3 9 Cloudy BKN026 OVC070 16 9     73% 11   30.06        
Jan 15 19:02 Calm 9 Cloudy SCT027 SCT050 OVC075 15 9     76%     30.06        
Jan 15 18:53 WNW 3 10 Cloudy OVC075 15 9     76% 10   30.06 30.23      
Jan 15 17:53 Calm 10 Cloudy OVC100 15 8     73%     30.07 30.24      
Jan 15 16:53 Calm 9 Mostly Clear FEW120 14 7     73%     30.07 30.24      
Jan 15 15:53 Calm 9 Clear CLR 15 7     70%     30.08 30.24      
Jan 15 14:53 Calm 8 Clear CLR 13 7     77%     30.08 30.25      
Jan 15 13:53 Calm 9 Clear CLR 13 7     77%     30.09 30.26      
May 14 10:53 S 3 10 Clear CLR 58 42     55%     30.13 30.11      
May 14 06:53 SSE 3 10 Clear CLR 42 37     82% 40   30.14 30.14      
May 12 22:53 Calm 10 Clear CLR 52 38     59%     29.97 29.97      
May 12 18:53 N 9 10 Clear CLR 67 38     34%     29.93 29.93      
May 11 17:53   10 Mostly Clear FEW060 55 44     66%     30.05 30.06     0
Jun 11 20:53   10 Clear   64 35     34%     29.82 29.8      
Jun 11 14:53 W 5 10 Clear CLR 65 28     25%     29.89 29.9      
Jun 10 12:13 5 6 Light Rain FEW035 BKN043 OVC055 52 41     66%     29.75   0    
Jun 10 08:53 S 7 10 Clear CLR 51 41     68%     29.75 29.74      
Jun 09 13:53 7 10 Light Rain FEW026 SCT037 BKN047 57 48     72%     29.8 29.79 0    
Jun 08 21:53   10 Mostly Clear FEW120 64 51     63%     29.75 29.7      
Jun 07 23:53 E 10 10 Clear CLR 70 54     57%     29.84 29.77      
Jun 07 09:53 Calm 10 Clear CLR 66 52     61%     29.99 29.94      
Jun 06 01:53 N 5 10 Clear CLR 47 41     80% 45   30.17 30.15